Location: Bidwell Hollow
(37.7387°N, 90.1707°W)
Time: 01:54:02
(UTC+00:00)

Tiros 1 despin weight - Pass Details

Date: 14 May 2026
Orbit: 554 x 591 km, 48.2° (Epoch: 6 June)

Event Time Altitude Azimuth Distance (km) Brightness Sun altitude
Rises 17:03:54 0° 304° (NW) 2,730 ? 67.8°
Reaches altitude 10° 17:06:09 10° 306° (NW) 1,833 ? 68.0°
Maximum altitude 17:10:20 79° 32° (NNE) 567 ? 68.5°
Drops below altitude 10° 17:14:31 10° 120° (ESE) 1,831 ? 68.9°
Sets 17:16:46 0° 122° (ESE) 2,727 ? 69.1°
